Weather History for Port Angeles, WA

Change the Weather History Date:

Friday, August 2, 2013

  Actual Average Record
Temperature  
Mean Temperature 58 °F -  
Max Temperature 60 °F 67 °F 85 °F (1952)
Min Temperature 55 °F 52 °F 43 °F (1987)
Degree Days  
Heating Degree Days 8    
Growing Degree Days 8 (Base 50)    
Moisture  
Dew Point 54 °F    
Average Humidity 89    
Maximum Humidity 94    
Minimum Humidity 83    
Precipitation  
Precipitation 0.07 in - - ()
Sea Level Pressure  
Sea Level Pressure 30.10 in    
Wind  
Wind Speed 4 mph (West)    
Max Wind Speed 8 mph    
Max Gust Speed -    
Visibility 10 miles    
Events Rain    
Averages and records for this station are not official NWS values.
T = Trace of Precipitation, MM = Missing Value Source: NWS Daily Summary

Daily Weather History Graph

Daily Weather History Graph

Search for Another Location

Airport:

Trip Planner

Search our weather history database for the weather conditions in past years. The results will help you decide how hot, cold, wet, or windy it might be!

Date:

Astronomy

Aug. 02, 2013 Rise Set
Actual Time 5:51 AM PDT 8:48 PM PDT
Civil Twilight 5:15 AM PDT 9:24 PM PDT
Nautical Twilight 4:28 AM PDT 10:10 PM PDT
Astronomical Twilight 3:31 AM PDT 11:06 PM PDT
Moon 2:13 AM PDT (8/2) 5:53 PM PDT (8/2)
Length of Visible Light 16h 08m
Length of Day
14h 56m
Waning Crescent, 15% of the Moon is Illuminated
Aug 2
Waning Crescent
Aug 6
New
Aug 14
First Quarter
Aug 20
Full
Aug 28
Last Quarter

Hourly Weather History & Observations

Time (PDT) Temp. Dew Point Humidity Pressure Visibility Wind Dir Wind Speed Gust Speed Precip Events Conditions
12:53 AM 57.0 °F 53.1 °F 87% 30.06 in 10.0 mi West 8.1 mph - N/A   Overcast
1:53 AM 57.0 °F 53.1 °F 87% 30.07 in 10.0 mi West 5.8 mph - N/A   Overcast
2:53 AM 57.0 °F 53.1 °F 87% 30.06 in 10.0 mi West 6.9 mph - N/A   Overcast
3:30 AM 57.0 °F 53.1 °F 87% 30.06 in 10.0 mi WSW 3.5 mph - N/A   Overcast
3:53 AM 57.0 °F 53.1 °F 87% 30.06 in 10.0 mi WSW 3.5 mph - N/A   Overcast
4:10 AM 57.0 °F 53.1 °F 87% 30.07 in 10.0 mi West 5.8 mph - N/A   Overcast
4:53 AM 57.0 °F 53.1 °F 87% 30.07 in 10.0 mi West 4.6 mph - N/A   Overcast
5:19 AM 57.0 °F 52.0 °F 83% 30.06 in 10.0 mi WSW 6.9 mph - N/A   Overcast
5:53 AM 57.0 °F 52.0 °F 83% 30.07 in 10.0 mi West 5.8 mph - N/A   Overcast
6:41 AM 57.0 °F 53.1 °F 87% 30.07 in 6.0 mi Calm Calm - 0.03 in Rain Rain
6:53 AM 55.9 °F 54.0 °F 93% 30.07 in 10.0 mi Calm Calm - 0.05 in Rain Light Rain
7:48 AM 55.4 °F 53.6 °F 94% 30.09 in 10.0 mi WNW 3.5 mph - 0.00 in   Overcast
7:53 AM 55.9 °F 54.0 °F 93% 30.09 in 10.0 mi WNW 4.6 mph - 0.00 in   Overcast
8:07 AM 55.9 °F 53.1 °F 90% 30.09 in 10.0 mi Calm Calm - N/A   Overcast
8:18 AM 55.9 °F 54.0 °F 93% 30.09 in 10.0 mi Calm Calm - 0.00 in Rain Light Rain
8:31 AM 57.0 °F 54.0 °F 89% 30.09 in 10.0 mi Calm Calm - 0.01 in Rain Light Rain
8:41 AM 57.0 °F 54.0 °F 89% 30.09 in 10.0 mi Calm Calm - 0.01 in   Overcast
8:53 AM 57.0 °F 55.0 °F 93% 30.09 in 10.0 mi Calm Calm - 0.01 in   Overcast
9:21 AM 57.9 °F 55.0 °F 90% 30.09 in 10.0 mi Variable 3.5 mph - N/A   Overcast
9:30 AM 57.0 °F 54.0 °F 89% 30.09 in 10.0 mi Calm Calm - N/A   Overcast
9:53 AM 57.9 °F 55.0 °F 90% 30.10 in 10.0 mi Variable 3.5 mph - N/A   Overcast
10:07 AM 57.9 °F 55.0 °F 90% 30.10 in 10.0 mi NW 3.5 mph - N/A   Overcast
10:32 AM 57.9 °F 55.0 °F 90% 30.10 in 10.0 mi WNW 4.6 mph - N/A   Overcast
10:48 AM 57.2 °F 55.4 °F 94% 30.11 in 10.0 mi North 4.6 mph - 0.00 in Rain Light Rain
10:53 AM 57.0 °F 54.0 °F 89% 30.11 in 9.0 mi Calm Calm - 0.01 in Rain Light Rain
11:18 AM 57.9 °F 55.9 °F 93% 30.11 in 10.0 mi Calm Calm - 0.00 in   Overcast
11:51 AM 59.0 °F 55.4 °F 88% 30.11 in 10.0 mi WNW 4.6 mph - 0.00 in   Overcast
11:53 AM 57.9 °F 55.0 °F 90% 30.12 in 10.0 mi WNW 3.5 mph - 0.00 in   Overcast
12:12 PM 59.0 °F 55.0 °F 87% 30.11 in 10.0 mi Variable 3.5 mph - N/A   Overcast
12:22 PM 59.0 °F 55.9 °F 90% 30.12 in 10.0 mi Calm Calm - N/A   Overcast
12:53 PM 59.0 °F 55.0 °F 87% 30.12 in 10.0 mi NW 5.8 mph - N/A   Overcast
1:53 PM 59.0 °F 55.9 °F 90% 30.13 in 10.0 mi NW 8.1 mph - 0.00 in   Overcast
2:10 PM 57.9 °F 55.0 °F 90% 30.13 in 10.0 mi NW 4.6 mph - N/A   Overcast
2:53 PM 59.0 °F 55.9 °F 90% 30.13 in 10.0 mi Calm Calm - N/A   Overcast
3:53 PM 59.0 °F 55.9 °F 90% 30.13 in 10.0 mi NW 3.5 mph - N/A   Overcast
4:53 PM 60.1 °F 55.9 °F 86% 30.12 in 10.0 mi Calm Calm - N/A   Overcast
5:53 PM 59.0 °F 55.0 °F 87% 30.12 in 10.0 mi NW 5.8 mph - N/A   Overcast
6:25 PM 60.1 °F 55.9 °F 86% 30.13 in 10.0 mi West 4.6 mph - N/A   Overcast
6:53 PM 59.0 °F 55.9 °F 90% 30.13 in 10.0 mi WNW 5.8 mph - N/A   Overcast
7:53 PM 59.0 °F 55.0 °F 87% 30.12 in 10.0 mi WNW 5.8 mph - N/A   Overcast
8:53 PM 59.0 °F 55.0 °F 87% 30.14 in 10.0 mi West 3.5 mph - N/A   Overcast
9:53 PM 57.9 °F 55.0 °F 90% 30.14 in 10.0 mi SW 3.5 mph - N/A   Overcast
10:53 PM 57.9 °F 55.0 °F 90% 30.14 in 10.0 mi Calm Calm - N/A   Overcast
11:35 PM 57.0 °F 55.0 °F 93% 30.14 in 10.0 mi SW 3.5 mph - N/A   Mostly Cloudy
11:53 PM 57.0 °F 55.0 °F 93% 30.14 in 10.0 mi SW 5.8 mph - N/A   Overcast